Weather History for KRIL - December, 2012

Change the Weather History Date:

Saturday, December 15, 2012

  Actual Average Record
Temperature  
Mean Temperature 33 °F 25 °F  
Max Temperature 37 °F 35 °F 55 °F (1921)
Min Temperature 28 °F 14 °F -14 °F (1945)
Degree Days  
Heating Degree Days 32 40  
Month to date heating degree days 493 574  
Since 1 July heating degree days 1751 2100  
Cooling Degree Days 0 0  
Month to date cooling degree days 0 0  
Year to date cooling degree days 809 541  
Moisture  
Dew Point 29 °F    
Average Humidity 82    
Maximum Humidity 100    
Minimum Humidity 64    
Precipitation  
Precipitation T in 0.03 in 0.46 in (1915)
Month to date precipitation 0.05 0.42  
Year to date precipitation 7.33 13.88  
Sea Level Pressure  
Sea Level Pressure 29.82 in    
Wind  
Wind Speed 5 mph (SW)    
Max Wind Speed 21 mph    
Max Gust Speed 23 mph    
Visibility 6 miles    
Events Snow    
T = Trace of Precipitation, MM = Missing Value Source: NWS Daily Summary

Daily Weather History Graph

Daily Weather History Graph

Search for Another Location

Airport or City:

Trip Planner

Search our weather history database for the weather conditions in past years. The results will help you decide how hot, cold, wet, or windy it might be!

Date:

Astronomy

Dec. 15, 2012 Rise Set
Actual Time 7:24 AM MST 4:48 PM MST
Civil Twilight 6:54 AM MST 5:18 PM MST
Nautical Twilight 6:20 AM MST 5:52 PM MST
Astronomical Twilight 5:47 AM MST 6:25 PM MST
Moon 9:19 AM MST (12/15) 7:55 PM MST (12/15)
Length of Visible Light 10h 24m
Length of Day
9h 23m
Waxing Crescent, 9% of the Moon is Illuminated
Dec 15
Waxing Crescent
Dec 19
First Quarter
Dec 28
Full
Jan 4
Last Quarter
Jan 11
New

Hourly Weather History & Observations

Time (MST) Temp. Windchill Dew Point Humidity Pressure Visibility Wind Dir Wind Speed Gust Speed Precip Events Conditions
12:05 AM 33.8 °F - 30.2 °F 87% 29.80 in 8.0 mi Calm Calm - 0.00 in   Overcast
12:22 AM 33.8 °F 29.6 °F 30.2 °F 87% 29.81 in 9.0 mi South 4.6 mph - 0.00 in   Overcast
12:42 AM 33.8 °F 28.6 °F 32.0 °F 93% 29.80 in 9.0 mi SSE 5.8 mph - 0.00 in   Overcast
12:53 AM 33.1 °F 27.7 °F 32.0 °F 96% 29.80 in 9.0 mi SSE 5.8 mph - 0.00 in   Overcast
1:53 AM 34.0 °F 28.8 °F 32.0 °F 92% 29.79 in 10.0 mi South 5.8 mph - N/A   Overcast
2:53 AM 33.1 °F 28.7 °F 32.0 °F 96% 29.81 in 10.0 mi ENE 4.6 mph - 0.00 in   Overcast
3:22 AM 33.8 °F - 32.0 °F 93% 29.81 in 8.0 mi Calm Calm - 0.00 in   Overcast
3:35 AM 33.8 °F 29.6 °F 30.2 °F 87% 29.81 in 8.0 mi East 4.6 mph - 0.00 in Snow Light Snow
3:53 AM 33.1 °F - 30.9 °F 92% 29.82 in 7.0 mi Calm Calm - 0.00 in Snow Light Snow
4:00 AM 33.8 °F - 30.2 °F 87% 29.81 in 4.0 mi Calm Calm - 0.00 in Snow Light Snow
4:23 AM 33.8 °F - 30.2 °F 87% 29.80 in 3.0 mi Calm Calm - 0.00 in Snow Light Snow
4:32 AM 32.0 °F 28.7 °F 30.2 °F 93% 29.80 in 2.5 mi ENE 3.5 mph - 0.00 in Snow Light Snow
4:42 AM 32.0 °F 28.7 °F 32.0 °F 100% 29.80 in 1.2 mi East 3.5 mph - 0.00 in Snow Light Snow
4:53 AM 32.0 °F - 32.0 °F 100% 29.83 in 1.8 mi Calm Calm - 0.00 in Snow Light Snow
5:02 AM 32.0 °F - 30.2 °F 93% 29.81 in 2.5 mi Calm Calm - 0.00 in Snow Light Snow
5:11 AM 33.8 °F - 30.2 °F 87% 29.81 in 1.8 mi Calm Calm - 0.00 in Snow Light Snow
5:29 AM 32.0 °F - 32.0 °F 100% 29.81 in 2.5 mi Calm Calm - 0.00 in Snow Light Snow
5:40 AM 32.0 °F - 32.0 °F 100% 29.81 in 3.0 mi Calm Calm - 0.00 in Snow Light Snow
5:53 AM 33.1 °F - 32.0 °F 96% 29.84 in 2.5 mi Calm Calm - 0.00 in Snow Light Snow
6:04 AM 33.8 °F 30.8 °F 30.2 °F 87% 29.82 in 1.8 mi NW 3.5 mph - 0.00 in Snow Light Snow
6:51 AM 32.0 °F 24.2 °F 30.2 °F 93% 29.83 in 1.5 mi West 9.2 mph - 0.00 in Snow Light Snow
6:53 AM 32.0 °F 24.2 °F 30.9 °F 96% 29.86 in 1.5 mi West 9.2 mph - 0.00 in Snow Light Snow
7:01 AM 32.0 °F 21.6 °F 30.2 °F 93% 29.83 in 3.0 mi West 15.0 mph 18.4 mph 0.00 in Snow Light Snow
7:17 AM 32.0 °F 19.8 °F 30.2 °F 93% 29.83 in 5.0 mi West 20.7 mph - 0.00 in Snow Light Snow
7:53 AM 32.0 °F 21.6 °F 30.0 °F 92% 29.86 in 1.8 mi West 15.0 mph - 0.00 in Snow Light Snow
8:03 AM 32.0 °F 22.1 °F 30.2 °F 93% 29.83 in 2.5 mi West 13.8 mph - 0.00 in Snow Light Snow
8:10 AM 32.0 °F 21.2 °F 30.2 °F 93% 29.83 in 8.0 mi West 16.1 mph 20.7 mph 0.00 in Snow Light Snow
8:53 AM 32.0 °F 23.0 °F 28.9 °F 88% 29.85 in 10.0 mi WSW 11.5 mph - 0.00 in   Overcast
9:53 AM 32.0 °F - 30.0 °F 92% 29.87 in 10.0 mi Calm Calm - N/A   Overcast
10:00 AM 32.0 °F - 30.2 °F 93% 29.84 in 10.0 mi Calm Calm - N/A   Overcast
10:23 AM 33.8 °F - 30.2 °F 87% 29.84 in 10.0 mi Calm Calm - N/A   Overcast
10:53 AM 35.1 °F 30.1 °F 30.0 °F 82% 29.84 in 10.0 mi Variable 5.8 mph - N/A   Scattered Clouds
11:24 AM 35.6 °F 31.7 °F 30.2 °F 81% 29.83 in 10.0 mi SSW 4.6 mph - N/A   Mostly Cloudy
11:49 AM 35.6 °F 28.0 °F 28.4 °F 75% 29.82 in 10.0 mi WSW 10.4 mph - N/A   Overcast
11:53 AM 35.1 °F 27.4 °F 28.0 °F 76% 29.83 in 10.0 mi WSW 10.4 mph - N/A   Overcast
12:53 PM 36.0 °F 29.0 °F 28.0 °F 73% 29.81 in 10.0 mi WSW 9.2 mph - N/A   Overcast
1:53 PM 36.0 °F 29.6 °F 28.9 °F 76% 29.80 in 10.0 mi WSW 8.1 mph - N/A   Mostly Cloudy
2:53 PM 37.0 °F 28.9 °F 27.0 °F 67% 29.80 in 10.0 mi West 12.7 mph - N/A   Mostly Cloudy
3:53 PM 35.1 °F 27.9 °F 26.1 °F 70% 29.81 in 10.0 mi SW 9.2 mph - N/A   Partly Cloudy
4:53 PM 34.0 °F 27.2 °F 27.0 °F 75% 29.81 in 10.0 mi South 8.1 mph - N/A   Mostly Cloudy
5:53 PM 32.0 °F - 27.0 °F 82% 29.80 in 10.0 mi Calm Calm - N/A   Partly Cloudy
6:53 PM 30.9 °F - 27.0 °F 85% 29.82 in 10.0 mi Calm Calm - N/A   Mostly Cloudy
7:53 PM 28.9 °F 21.9 °F 25.0 °F 85% 29.82 in 10.0 mi ESE 6.9 mph - N/A   Overcast
8:53 PM 30.0 °F 26.5 °F 26.1 °F 85% 29.81 in 10.0 mi South 3.5 mph - N/A   Overcast
9:53 PM 30.9 °F - 26.1 °F 82% 29.81 in 9.0 mi Calm Calm - 0.00 in   Overcast
10:19 PM 30.2 °F - 26.6 °F 86% 29.79 in 3.0 mi Calm Calm - 0.00 in Snow Light Snow
10:40 PM 30.2 °F - 26.6 °F 86% 29.79 in 2.5 mi Calm Calm - 0.00 in Snow Light Snow
10:48 PM 30.2 °F - 26.6 °F 86% 29.79 in 1.5 mi Calm Calm - 0.00 in Snow Light Snow
10:53 PM 28.9 °F - 27.0 °F 92% 29.83 in 1.8 mi Calm Calm - 0.00 in Snow Light Snow
11:04 PM 28.4 °F - 28.4 °F 100% 29.79 in 2.0 mi Calm Calm - 0.00 in Snow Light Snow
11:08 PM 28.4 °F - 26.6 °F 93% 29.79 in 5.0 mi Calm Calm - 0.00 in Snow Light Snow
11:20 PM 28.4 °F - 26.6 °F 93% 29.79 in 9.0 mi Calm Calm - 0.00 in   Overcast
11:28 PM 28.4 °F - 26.6 °F 93% 29.79 in 10.0 mi Calm Calm - 0.00 in   Overcast
11:53 PM 28.9 °F - 27.0 °F 92% 29.83 in 10.0 mi Calm Calm - 0.00 in   Overcast